Location: Unspecified
(51.0950°N, 12.9690°E)
Time: 14:24:10
(UTC+00:00)

PCSat - Pass Details

Date: 25 April 2024
Orbit: 783 x 792 km, 67.1° (Epoch: 24 May)

Event Time Altitude Azimuth Distance (km) Brightness Sun altitude
Rises 22:48:37 0° 314° (NW) 3,298 13.5 -25.2°
Reaches altitude 10° 22:51:57 10° 335° (NNW) 2,369 12.9 -25.2°
Maximum altitude 22:55:24 17° 15° (NNE) 1,933 12.4 -25.3°
Drops below altitude 10° 22:58:52 10° 55° (NE) 2,368 12.4 -25.3°
Sets 23:02:11 0° 75° (ENE) 3,296 13.0 -25.3°
